TimeCST,TemperatureF,Dew PointF,Humidity,Sea Level PressureIn,VisibilityMPH,Wind Direction,Wind SpeedMPH,Gust SpeedMPH,PrecipitationIn,Events,Conditions,WindDirDegrees,DateUTC
12:58 AM,54.0,51.1,90,30.24,10.0,NNW,4.6,-,N/A,,Overcast,330,2012-11-13 06:58:00
1:58 AM,52.0,46.9,83,30.23,10.0,Variable,4.6,-,N/A,,Overcast,0,2012-11-13 07:58:00
2:07 AM,51.8,46.4,82,30.24,10.0,NNW,8.1,-,N/A,,Overcast,340,2012-11-13 08:07:00
2:58 AM,51.1,45.0,80,30.25,10.0,NNW,4.6,-,N/A,,Overcast,340,2012-11-13 08:58:00
3:58 AM,50.0,42.1,74,30.25,10.0,NNW,3.5,-,N/A,,Overcast,340,2012-11-13 09:58:00
4:58 AM,48.0,37.9,68,30.27,10.0,NW,3.5,-,N/A,,Overcast,320,2012-11-13 10:58:00
5:58 AM,44.1,33.1,65,30.30,10.0,Variable,5.8,-,N/A,,Scattered Clouds,0,2012-11-13 11:58:00
6:58 AM,42.1,32.0,67,30.32,10.0,NNW,5.8,-,N/A,,Clear,340,2012-11-13 12:58:00
7:58 AM,44.1,32.0,63,30.33,10.0,North,8.1,-,N/A,,Clear,350,2012-11-13 13:58:00
8:58 AM,46.9,30.9,54,30.33,10.0,Variable,6.9,-,N/A,,Clear,0,2012-11-13 14:58:00
9:58 AM,51.1,30.0,44,30.32,10.0,Variable,5.8,-,N/A,,Clear,0,2012-11-13 15:58:00
10:58 AM,55.9,30.0,37,30.29,10.0,Variable,4.6,-,N/A,,Clear,0,2012-11-13 16:58:00
11:58 AM,60.1,30.9,33,30.25,10.0,Variable,4.6,-,N/A,,Clear,0,2012-11-13 17:58:00
12:58 PM,63.0,30.0,29,30.22,10.0,Variable,5.8,-,N/A,,Clear,0,2012-11-13 18:58:00
1:58 PM,64.0,30.0,28,30.21,10.0,NNW,8.1,-,N/A,,Clear,340,2012-11-13 19:58:00
2:58 PM,64.0,28.9,27,30.20,10.0,North,4.6,-,N/A,,Clear,350,2012-11-13 20:58:00
3:58 PM,62.1,30.9,31,30.21,10.0,Calm,Calm,-,N/A,,Clear,0,2012-11-13 21:58:00
4:58 PM,51.1,39.0,63,30.23,10.0,Calm,Calm,-,N/A,,Clear,0,2012-11-13 22:58:00
5:58 PM,45.0,37.9,76,30.24,10.0,Calm,Calm,-,N/A,,Clear,0,2012-11-13 23:58:00
6:58 PM,51.1,30.9,46,30.25,10.0,Variable,3.5,-,N/A,,Clear,0,2012-11-14 00:58:00
7:58 PM,50.0,30.9,48,30.26,10.0,NNW,3.5,-,N/A,,Clear,340,2012-11-14 01:58:00
8:58 PM,43.0,34.0,71,30.27,10.0,Calm,Calm,-,N/A,,Clear,0,2012-11-14 02:58:00
9:58 PM,41.0,34.0,76,30.27,10.0,Calm,Calm,-,N/A,,Clear,0,2012-11-14 03:58:00
10:58 PM,43.0,33.1,68,30.25,10.0,Calm,Calm,-,N/A,,Clear,0,2012-11-14 04:58:00
11:58 PM,44.1,33.1,65,30.24,10.0,Calm,Calm,-,N/A,,Clear,0,2012-11-14 05:58:00